Regional Weather Roundup
Issued by NWS

Home | Current Version | Previous Version | Graphics & Text | Print | Product List | Glossary On
Versions: 1 2 3 4 5 6 7 8 9 10 11 12 13 14 15 16 17 18 19 20 21 22 23 24 25 26 27 28 29 30 31 32 33 34 35 36 37 38 39 40 41 42 43 44 45 46 47 48 49 50
000
ASUS43 KFSD 172110
RWRSD

WEATHER ROUNDUP FOR SOUTH DAKOTA
NATIONAL WEATHER SERVICE SIOUX FALLS SD
400 PM CDT THU AUG 17 2017

NOTE: "FAIR" INDICATES FEW OR NO CLOUDS BELOW 12,000 FEET WITH NO
SIGNIFICANT WEATHER AND/OR OBSTRUCTIONS TO VISIBILITY.


SDZ001>005-009-010-012>017-172200-
NORTHWEST AND NORTH CENTRAL SOUTH DAKOTA

CITY           SKY/WX    TMP DP  RH WIND       PRES   REMARKS
BUFFALO          N/A     76  45  33 N10       29.88S
FAITH            N/A     91  45  20 NW21      29.86S
MOBRIDGE       SUNNY     83  56  39 SE10      29.84S
$$

SDZ012>016-024>037-041>051-057-063-072>074-172200-
SOUTHWEST AND SOUTH CENTRAL SOUTH DAKOTA

CITY           SKY/WX    TMP DP  RH WIND       PRES   REMARKS
RAPID CTY ARPT PTSUNNY   85  40  20 W7G18     29.92F
PIERRE         SUNNY     87  54  32 SE15      29.83F
CUSTER         MOSUNNY   77  41  27 NE21G30   30.06S
ELLSWORTH AFB  CLOUDY    84  43  23 SW5       29.92
PHILIP         SUNNY     97  42  15 SW12G20   29.80F
PINE RIDGE     SUNNY     91  50  24 SW10      29.91F
WINNER         FAIR      88  59  37 S14       29.88F
$$

SDZ004>011-016>023-039-040-172200-
NORTHEAST SOUTH DAKOTA

CITY           SKY/WX    TMP DP  RH WIND       PRES   REMARKS
ABERDEEN       SUNNY     80  56  43 E8        29.87F
WATERTOWN      SUNNY     76  54  46 N14       29.89S
BROOKINGS      SUNNY     75  61  61 NW13      29.90R
SISSETON         N/A     78  59  51 N14       29.85S
$$

SDZ017-020-022-023-036>040-048>070-172200-
SOUTHEAST SOUTH DAKOTA

CITY           SKY/WX    TMP DP  RH WIND       PRES   REMARKS
SIOUX FALLS    SUNNY     79  60  52 NW14G22   29.89S
HURON          SUNNY     81  58  45 NE6       29.88F
CHAMBERLAIN    SUNNY     85  58  39 SE9       29.88F
MITCHELL       SUNNY     82  56  40 VRB3      29.89F
YANKTON        SUNNY     80  57  45 W8        29.91S
$$

ABBREVIATIONS USED IN REMARKS
   TC - TEMPERATURE IN CELSIUS
  WCI - WIND CHILL INDEX
   HX - HEAT INDEX
  VSB - VISIBILITY




USA.gov is the U.S. government's official web portal to all federal, state and local government web resources and services.